Weather in Bambui

Brazil     20°05′20″S   46°04′08″W
temp.,
°C
wind,
m/s
gust,
m/s
humid.,
%
clouds,
%
prec.,
mm/h
press.,
hPa
HPBL,
m
8 may, sat
sat800:00+16sw34652 0.0 102053
03:00+15sw23812 0.0 101939
06:00+14ssw22932 0.0 102120
09:00+20se45640 0.0 1023694
12:00+27ese33430 0.0 10201369
15:00+29ene233186 0.0 10172966
18:00+24se234789 0.0 101853
21:00+20s115835 0.0 102024
9 may, sun
sun900:00+16sse22842 0.0 102223
03:00+14sse22954 0.0 102240
06:00+13s12973 0.0 102319
09:00+19ese34673 0.0 1024617
12:00+25e33456 0.0 10211457
15:00+27e323695 0.0 10182508
18:00+23ese2445100 0.0 101973
21:00+21ese1152100 0.0 102016
10 may, mon
mon1000:00+19ne246087 0.0 1021128
03:00+16e237326 0.0 102062
06:00+13se11890 0.0 102210
09:00+20e23600 0.0 1023603
12:00+25ene32402 0.0 10201461
15:00+27e22349 0.0 10162133
18:00+21e33530 0.0 101736
21:00+17nne11640 0.0 101912
11 may, tue
tue1100:00+15w11740 0.0 101911
03:00+14n11810 0.0 101811
06:00+13nw11870 0.0 101910
09:00+20ne23550 0.0 1020536
12:00+27ne33375 0.0 10161493
15:00+29sse133019 0.0 10122516
18:00+22ene3750100 0.0 1013157
21:00+21n2454100 0.0 101580
12 may, wed
wed1200:00+18nnw1161100 0.0 101511
03:00+16n2269100 0.0 101414
06:00+15n1175100 0.0 101512
09:00+22n2447100 0.0 1016450
12:00+30nw562740 0.0 10132300
15:00+31w582421 0.0 10103387
18:00+25sw2238100 0.0 101224
21:00+21wsw2247100 0.0 101422